Weather History for KLUF - January, 2013

Change the Weather History Date:

Wednesday, January 2, 2013

  Actual Average Record
Temperature  
Mean Temperature 49 °F -  
Max Temperature 62 °F 65 °F 54 °F (2015)
Min Temperature 36 °F 34 °F 29 °F (2015)
Degree Days  
Heating Degree Days 16    
Moisture  
Dew Point 17 °F    
Average Humidity 30    
Maximum Humidity 54    
Minimum Humidity 14    
Precipitation  
Precipitation 0.00 in - - ()
Sea Level Pressure  
Sea Level Pressure 30.08 in    
Wind  
Wind Speed 9 mph (North)    
Max Wind Speed 16 mph    
Max Gust Speed -    
Visibility 10 miles    
Events      
Averages and records for this station are not official NWS values.
T = Trace of Precipitation, MM = Missing Value Source: NWS Daily Summary

Daily Weather History Graph

Daily Weather History Graph

Search for Another Location

Airport or City:

Trip Planner

Search our weather history database for the weather conditions in past years. The results will help you decide how hot, cold, wet, or windy it might be!

Date:

Astronomy

Jan. 02, 2013 Rise Set
Actual Time 7:34 AM MST 5:33 PM MST
Civil Twilight 7:06 AM MST 6:01 PM MST
Nautical Twilight 6:35 AM MST 6:32 PM MST
Astronomical Twilight 6:05 AM MST 7:02 PM MST
Moon 10:52 PM MST (1/2) 10:33 AM MST (1/2)
Length of Visible Light 10h 54m
Length of Day
9h 59m
Waning Gibbous, 74% of the Moon is Illuminated
Jan 2
Waning Gibbous
Jan 4
Last Quarter
Jan 11
New
Jan 18
First Quarter
Jan 26
Full

Hourly Weather History & Observations

Time (MST) Temp. Windchill Dew Point Humidity Pressure Visibility Wind Dir Wind Speed Gust Speed Precip Events Conditions
12:58 AM 46.2 °F 41.7 °F 14.2 °F 28% 30.17 in 10.0 mi North 9.2 mph - N/A   Clear
1:58 AM 46.2 °F 39.5 °F 15.1 °F 29% 30.14 in 10.0 mi NNE 16.1 mph - N/A   Clear
2:58 AM 45.9 °F 40.0 °F 15.4 °F 30% 30.14 in 10.0 mi North 12.7 mph - N/A   Clear
3:58 AM 45.0 °F 39.7 °F 15.3 °F 30% 30.12 in 10.0 mi North 10.4 mph - N/A   Clear
4:58 AM 39.2 °F 35.0 °F 17.4 °F 41% 30.12 in 10.0 mi North 5.8 mph - N/A   Clear
5:58 AM 36.7 °F 31.2 °F 21.4 °F 54% 30.12 in 10.0 mi NW 6.9 mph - N/A   Clear
6:58 AM 36.3 °F 30.8 °F 19.8 °F 51% 30.13 in 10.0 mi North 6.9 mph - N/A   Clear
7:58 AM 41.2 °F 37.3 °F 16.9 °F 38% 30.13 in 10.0 mi NE 5.8 mph - N/A   Clear
8:58 AM 45.7 °F 41.0 °F 15.8 °F 30% 30.14 in 10.0 mi NNE 9.2 mph - N/A   Clear
9:58 AM 50.5 °F - 14.4 °F 24% 30.15 in 10.0 mi NNE 16.1 mph - N/A   Clear
10:58 AM 53.6 °F - 12.9 °F 20% 30.13 in 10.0 mi NNE 10.4 mph - N/A   Clear
11:58 AM 56.3 °F - 13.5 °F 18% 30.09 in 10.0 mi NNE 8.1 mph - N/A   Clear
12:58 PM 58.5 °F - 12.6 °F 16% 30.06 in 10.0 mi East 8.1 mph - N/A   Clear
1:58 PM 60.4 °F - 13.1 °F 16% 30.02 in 10.0 mi Variable 3.5 mph - N/A   Clear
2:58 PM 61.0 °F - 13.3 °F 15% 30.00 in 10.0 mi Calm Calm - N/A   Clear
3:58 PM 62.4 °F - 12.9 °F 14% 30.00 in 10.0 mi NNE 1.2 mph - N/A   Clear
4:58 PM 61.2 °F - 13.5 °F 16% 30.00 in 10.0 mi SW 4.6 mph - N/A   Clear
5:58 PM 56.8 °F - 16.5 °F 21% 30.01 in 10.0 mi South 4.6 mph - N/A   Clear
6:58 PM 50.4 °F - 23.0 °F 34% 30.02 in 10.0 mi NW 5.8 mph - N/A   Clear
7:58 PM 45.1 °F 41.4 °F 26.8 °F 49% 30.02 in 10.0 mi NNW 6.9 mph - N/A   Clear
8:58 PM 46.0 °F 41.9 °F 19.0 °F 34% 30.03 in 10.0 mi North 8.1 mph - N/A   Clear
9:58 PM 47.3 °F - 18.0 °F 31% 30.04 in 10.0 mi NNW 10.4 mph - N/A   Clear
10:58 PM 44.6 °F 39.2 °F 17.2 °F 33% 30.05 in 10.0 mi North 10.4 mph - N/A   Clear
11:58 PM 42.6 °F 38.4 °F 18.3 °F 38% 30.05 in 10.0 mi NNW 6.9 mph - N/A   Clear